GSAT-7A

Last updated on Sun Jun 21 2026 00:03:07 GMT+0000 (Coordinated Universal Time)

1 43864U 18105A 26171.11926347 .00000022 00000+0 00000+0 0 9992 2 43864 0.0287 96.4468 0002043 330.1212 307.4536 1.00271952 27477
UTC large
Height (km)
Speed (km/s)
/
Latitude / Longitude
Inclination (degrees)
Orbital Period (minutes)
Azimuth
Elevation
Range (km)
Doppler Factor

Next 0 passes for location: London (51.5072 / 0.1276)

No passes found over London.
GSAT-7A